Tracking 19832 objects as of 25-Aug-2019
HD Live streaming from Space Station
objects crossing your sky now

COSMOS 1088

Track COSMOS 1088 now!
10-day predictions
COSMOS 1088 is classified as:


NORAD ID: 11303
Int'l Code: 1979-024H
Perigee: 1,472.6 km
Apogee: 1,553.8 km
Inclination: 74.0 °
Period: 116.1 minutes
Semi major axis: 7884 km
RCS: 0.7099 m2 (medium)
Launch date: March 15, 1979
Source: Commonwealth of Independent States (former USSR) (CIS)
Launch site: PLESETSK MISSILE AND SPACE COMPLEX (PKMTR)
aabbcc
Your satellite tracking list
Your tracking list is empty




NASA's NSSDC Master Catalog

Two Line Element Set (TLE):
1 11303U 79024H   19236.93975341 -.00000004 +00000-0 +82861-4 0  9996
2 11303 074.0338 040.6189 0051471 065.6295 103.2022 12.40122572831035
Source of the keplerian elements: AFSPC